• In Hungary
  • List of Countries
  • For 7 days
  • Water Temperature
  • Satellite Maps
  • Weather Map
  • News
  • Weather Widgets
  • user-avatar
    Login

    Hourly Weather Orsha

    Today, 25 June, Monday

    Time Temperature Precipitation Wind Pressure Humidity
    00:00 +9°C° 0 mm 2 mps 744 mmHg 91%
    01:00 +9°C° 0 mm 2 mps 744 mmHg 92%
    02:00 +8°C° 0 mm 2 mps 744 mmHg 93%
    03:00 +8°C° 0 mm 2 mps 744 mmHg 93%
    04:00 +9°C° 0 mm 3 mps 745 mmHg 92%
    05:00 +9°C° 0 mm 3 mps 745 mmHg 92%
    06:00 +11°C° 0 mm 3 mps 745 mmHg 86%
    07:00 +13°C° 0 mm 4 mps 745 mmHg 81%
    08:00 +14°C° 0 mm 4 mps 745 mmHg 75%
    09:00 +15°C° 0.3 mm 5 mps 746 mmHg 73%
    10:00 +16°C° 0.3 mm 5 mps 746 mmHg 71%
    11:00 +17°C° 0.3 mm 5 mps 746 mmHg 69%
    12:00 +17°C° 0.3 mm 5 mps 746 mmHg 67%
    13:00 +19°C° 0.3 mm 5 mps 746 mmHg 65%
    14:00 +20°C° 0.3 mm 5 mps 746 mmHg 63%
    15:00 +19°C° 0.3 mm 4 mps 746 mmHg 65%
    16:00 +19°C° 0.3 mm 4 mps 746 mmHg 68%
    17:00 +19°C° 0.3 mm 3 mps 746 mmHg 70%
    18:00 +18°C° 0.2 mm 3 mps 747 mmHg 75%
    19:00 +16°C° 0.2 mm 2 mps 747 mmHg 79%
    20:00 +15°C° 0.2 mm 2 mps 747 mmHg 84%
    21:00 +14°C° 0 mm 2 mps 747 mmHg 86%
    22:00 +13°C° 0 mm 2 mps 747 mmHg 88%
    23:00 +12°C° 0 mm 2 mps 748 mmHg 90%

    Tomorrow, 26 June, Tuesday

    Time Temperature Precipitation Wind Pressure Humidity
    00:00 +12°C° 0 mm 2 mps 748 mmHg 91%
    01:00 +10°C° 0 mm 2 mps 748 mmHg 91%
    02:00 +11°C° 0 mm 1 mps 749 mmHg 92%
    03:00 +10°C° 0 mm 2 mps 749 mmHg 92%
    04:00 +12°C° 0 mm 2 mps 749 mmHg 93%
    05:00 +12°C° 0 mm 2 mps 749 mmHg 93%
    06:00 +14°C° 0 mm 2 mps 749 mmHg 89%
    07:00 +16°C° 0 mm 2 mps 750 mmHg 84%
    08:00 +17°C° 0 mm 2 mps 750 mmHg 80%
    09:00 +19°C° 0.1 mm 3 mps 750 mmHg 75%
    10:00 +20°C° 0.1 mm 3 mps 750 mmHg 70%
    11:00 +21°C° 0.1 mm 3 mps 750 mmHg 64%
    12:00 +22°C° 0.1 mm 3 mps 750 mmHg 63%
    13:00 +22°C° 0.1 mm 3 mps 750 mmHg 62%
    14:00 +24°C° 0.1 mm 3 mps 750 mmHg 61%
    15:00 +23°C° 0.4 mm 2 mps 750 mmHg 64%
    16:00 +23°C° 0.4 mm 2 mps 750 mmHg 67%
    17:00 +23°C° 0.4 mm 2 mps 750 mmHg 70%
    18:00 +21°C° 0.1 mm 2 mps 750 mmHg 74%
    19:00 +19°C° 0.1 mm 2 mps 750 mmHg 79%
    20:00 +18°C° 0.1 mm 2 mps 750 mmHg 84%
    21:00 +17°C° 0.1 mm 2 mps 750 mmHg 86%
    22:00 +16°C° 0.1 mm 2 mps 750 mmHg 87%
    23:00 +15°C° 0.1 mm 2 mps 750 mmHg 89%

    Day after tomorrow, 27 June, Wednesday

    Time Temperature Precipitation Wind Pressure Humidity
    00:00 +15°C° 0 mm 2 mps 750 mmHg 90%
    01:00 +14°C° 0 mm 2 mps 751 mmHg 91%
    02:00 +14°C° 0 mm 2 mps 751 mmHg 91%
    03:00 +14°C° 0 mm 2 mps 751 mmHg 91%
    04:00 +13°C° 0 mm 3 mps 751 mmHg 91%
    05:00 +13°C° 0 mm 3 mps 751 mmHg 91%
    06:00 +16°C° 0 mm 3 mps 751 mmHg 87%
    07:00 +18°C° 0 mm 4 mps 751 mmHg 82%
    08:00 +19°C° 0 mm 4 mps 751 mmHg 78%
    09:00 +21°C° 0 mm 5 mps 751 mmHg 73%
    10:00 +22°C° 0 mm 5 mps 751 mmHg 68%
    11:00 +24°C° 0 mm 6 mps 751 mmHg 63%
    12:00 +24°C° 0 mm 6 mps 751 mmHg 62%
    13:00 +26°C° 0 mm 6 mps 750 mmHg 61%
    14:00 +26°C° 0 mm 6 mps 750 mmHg 61%
    15:00 +26°C° 0 mm 5 mps 750 mmHg 63%
    16:00 +26°C° 0 mm 5 mps 750 mmHg 65%
    17:00 +26°C° 0 mm 4 mps 750 mmHg 67%
    18:00 +25°C° 0 mm 4 mps 750 mmHg 71%
    19:00 +22°C° 0 mm 4 mps 750 mmHg 75%
    20:00 +21°C° 0 mm 4 mps 750 mmHg 79%
    21:00 +20°C° 0 mm 4 mps 750 mmHg 79%
    22:00 +19°C° 0 mm 4 mps 750 mmHg 78%
    23:00 +18°C° 0 mm 4 mps 750 mmHg 78%

    28 June, Thursday

    Time Temperature Precipitation Wind Pressure Humidity
    00:00 +18°C° 0 mm 4 mps 750 mmHg 78%
    01:00 +17°C° 0 mm 4 mps 750 mmHg 79%
    02:00 +16°C° 0 mm 5 mps 750 mmHg 79%
    03:00 +16°C° 0 mm 5 mps 750 mmHg 80%
    04:00 +16°C° 0 mm 5 mps 750 mmHg 81%
    05:00 +16°C° 0 mm 6 mps 750 mmHg 81%
    06:00 +19°C° 0 mm 6 mps 750 mmHg 78%
    07:00 +20°C° 0 mm 6 mps 750 mmHg 74%
    08:00 +22°C° 0 mm 7 mps 750 mmHg 71%
    09:00 +23°C° 0 mm 7 mps 750 mmHg 68%
    10:00 +24°C° 0 mm 7 mps 750 mmHg 66%
    11:00 +26°C° 0 mm 7 mps 749 mmHg 63%
    12:00 +26°C° 0 mm 7 mps 749 mmHg 63%
    13:00 +27°C° 0 mm 7 mps 749 mmHg 62%
    14:00 +27°C° 0 mm 7 mps 749 mmHg 62%
    15:00 +27°C° 0 mm 6 mps 749 mmHg 64%
    16:00 +27°C° 0 mm 6 mps 748 mmHg 66%
    17:00 +27°C° 0 mm 5 mps 748 mmHg 69%
    18:00 +26°C° 0 mm 5 mps 748 mmHg 72%
    19:00 +23°C° 0 mm 4 mps 748 mmHg 76%
    20:00 +22°C° 0 mm 4 mps 747 mmHg 80%
    21:00 +21°C° 0 mm 4 mps 747 mmHg 81%
    22:00 +20°C° 0 mm 4 mps 747 mmHg 82%
    23:00 +19°C° 0 mm 4 mps 747 mmHg 82%

    29 June, Friday

    Time Temperature Precipitation Wind Pressure Humidity
    00:00 +18°C° 0 mm 4 mps 747 mmHg 84%
    01:00 +18°C° 0 mm 4 mps 747 mmHg 86%
    02:00 +17°C° 0 mm 4 mps 746 mmHg 88%
    03:00 +17°C° 0 mm 4 mps 746 mmHg 87%
    04:00 +17°C° 0 mm 4 mps 746 mmHg 87%
    05:00 +17°C° 0 mm 4 mps 746 mmHg 86%
    06:00 +19°C° 0 mm 4 mps 745 mmHg 83%
    07:00 +20°C° 0 mm 5 mps 745 mmHg 80%
    08:00 +22°C° 0 mm 5 mps 745 mmHg 77%
    09:00 +23°C° 0 mm 5 mps 745 mmHg 74%
    10:00 +26°C° 0 mm 5 mps 744 mmHg 71%
    11:00 +27°C° 0 mm 5 mps 744 mmHg 68%
    12:00 +28°C° 0 mm 5 mps 743 mmHg 68%
    13:00 +28°C° 0 mm 5 mps 743 mmHg 67%
    14:00 +29°C° 0 mm 5 mps 742 mmHg 66%
    15:00 +28°C° 0 mm 5 mps 742 mmHg 68%
    16:00 +28°C° 0 mm 5 mps 741 mmHg 70%
    17:00 +28°C° 0 mm 5 mps 741 mmHg 72%
    18:00 +27°C° 0.1 mm 4 mps 741 mmHg 77%
    19:00 +26°C° 0.1 mm 4 mps 741 mmHg 82%
    20:00 +23°C° 0.1 mm 4 mps 740 mmHg 87%
    21:00 +22°C° 0.1 mm 3 mps 740 mmHg 89%
    22:00 +21°C° 0.1 mm 3 mps 740 mmHg 92%
    23:00 +20°C° 0.1 mm 3 mps 739 mmHg 95%

    30 June, Saturday

    Time Temperature Precipitation Wind Pressure Humidity
    00:00 +20°C° 0 mm 3 mps 739 mmHg 95%
    01:00 +19°C° 0 mm 3 mps 739 mmHg 96%
    02:00 +19°C° 0 mm 3 mps 738 mmHg 97%
    03:00 +19°C° 0.1 mm 3 mps 738 mmHg 97%
    04:00 +19°C° 0.1 mm 3 mps 738 mmHg 97%
    05:00 +18°C° 0.1 mm 2 mps 737 mmHg 97%
    06:00 +20°C° 0.1 mm 2 mps 737 mmHg 94%
    07:00 +21°C° 0.1 mm 2 mps 737 mmHg 92%
    08:00 +23°C° 0.1 mm 2 mps 737 mmHg 89%
    09:00 +24°C° 0.7 mm 2 mps 736 mmHg 86%
    10:00 +25°C° 0.7 mm 2 mps 736 mmHg 82%
    11:00 +26°C° 0.7 mm 1 mps 736 mmHg 79%
    12:00 +25°C° 3.2 mm 2 mps 736 mmHg 82%
    13:00 +24°C° 3.2 mm 2 mps 736 mmHg 84%
    14:00 +24°C° 3.2 mm 3 mps 736 mmHg 87%
    15:00 +21°C° 2 mm 4 mps 736 mmHg 89%
    16:00 +20°C° 2 mm 6 mps 736 mmHg 91%
    17:00 +17°C° 2 mm 7 mps 736 mmHg 93%
    18:00 +16°C° 0.6 mm 7 mps 737 mmHg 93%
    19:00 +15°C° 0.6 mm 7 mps 737 mmHg 93%
    20:00 +14°C° 0.6 mm 7 mps 738 mmHg 93%
    21:00 +14°C° 0.2 mm 7 mps 738 mmHg 93%
    22:00 +13°C° 0.2 mm 6 mps 739 mmHg 92%
    23:00 +13°C° 0.2 mm 6 mps 740 mmHg 92%
    Show more